Simultaneous Nadir Overpasses (SNOs) Predictions

Prediction of SNOs between NPP and TERRA Satellite Orbit:

Table of predicted SNOs for the next 14.0 days since TLE Epoch: 6/16/2012
Index Date (NPP) Time (NPP) Lat,Lon (NPP) SZA (NPP ) Date (TERRA) Time (TERRA) Lat,Lon (TERRA) SZA (TERRA ) Distance(km) Time Diff (sec)
1 06/16/2012 11:28:17 68.36, 6.19 44.90 06/16/2012 11:29:29 68.32, 6.23 44.85 4.71 72
2 06/16/2012 12:18:58 -68.21, 173.69 135.26 06/16/2012 12:18:59 -68.21, 173.73 135.26 1.64 1
3 06/16/2012 13:09:40 67.99, -18.72 44.52 06/16/2012 13:08:28 67.99, -18.88 44.52 6.69 72
4 06/19/2012 03:45:07 68.26, 122.10 44.73 06/19/2012 03:46:01 68.27, 122.04 44.74 2.97 54
5 06/19/2012 04:35:49 -68.16, -70.46 135.37 06/19/2012 04:35:31 -68.16, -70.46 135.37 0.24 18
6 06/19/2012 05:26:19 67.29, 97.91 43.75 06/19/2012 05:25:10 67.38, 96.29 43.87 70.01 69
7 06/21/2012 20:01:59 68.26,-122.12 44.73 06/21/2012 20:02:32 68.25,-122.11 44.72 0.64 33
8 06/21/2012 20:52:40 -68.10, 45.39 135.43 06/21/2012 20:52:03 -68.09, 45.33 135.44 2.77 37
9 06/24/2012 11:28:17 -68.94,-174.55 134.53 06/24/2012 11:29:26 -68.83,-173.17 134.67 56.68 69
10 06/24/2012 12:18:49 68.20, -6.27 44.71 06/24/2012 12:19:02 68.22, -6.28 44.73 2.10 13
11 06/24/2012 13:09:31 -68.10, 161.18 135.40 06/24/2012 13:08:32 -68.12, 161.23 135.37 3.19 59
12 06/27/2012 03:44:57 -68.29, -57.91 135.11 06/27/2012 03:46:06 -68.29, -57.97 135.12 2.56 69
13 06/27/2012 04:35:41 68.19, 109.52
